EW5855 Weather Reports


Display with metric or nautical units.
time (UTC)temp
F
wind
direction
speed
MPH
gust
MPH
rain 1hr
in
rain 24hr
in
rain mn
in
humidity
%
barometer
mb
20260509211518 52 193 0.0 1.0 0.00 0.15 0.15 99 1009.8
20260509210557 52 199 0.0 2.0 0.00 0.15 0.15 99 1009.8
20260509205530 52 0.0 0.0 0.00 0.15 0.15 99 1009.9
20260509204525 51 238 0.0 1.0 0.00 0.15 0.15 99 1010.0
20260509203542 51 69 0.0 1.0 0.00 0.15 0.15 99 1010.2
20260509202518 52 85 0.0 1.0 0.00 0.15 0.15 98 1010.2
20260509201534 52 0.0 0.0 0.01 0.15 0.15 98 1010.3
20260509200529 51 0.0 0.0 0.01 0.15 0.15 98 1010.3
20260509195525 51 0.0 0.0 0.01 0.15 0.15 98 1010.3
20260509194522 51 0.0 0.0 0.01 0.15 0.15 99 1010.3
20260509193537 51 0.0 0.0 0.01 0.15 0.15 99 1010.4
20260509192533 51 0.0 0.0 0.01 0.15 0.15 99 1010.4
20260509191529 51 0.0 0.0 0.00 0.14 0.14 99 1010.6
20260509190525 51 82 0.0 2.0 0.00 0.14 0.14 98 1010.6
20260509185521 51 0.0 0.0 0.00 0.14 0.14 98 1010.7
20260509184518 51 197 0.0 1.0 0.00 0.14 0.14 98 1010.7
20260509183534 51 246 0.0 2.0 0.00 0.14 0.14 98 1010.9
20260509182529 51 224 0.0 1.0 0.00 0.14 0.14 97 1010.9
20260509181525 51 172 0.0 1.0 0.01 0.14 0.14 97 1010.7
20260509180521 51 221 0.0 1.0 0.01 0.14 0.14 97 1010.8
20260509175517 51 138 1.0 2.0 0.01 0.14 0.14 96 1011.0
20260509174533 52 144 1.0 2.0 0.01 0.14 0.14 96 1011.0
20260509173528 52 156 1.0 2.0 0.02 0.14 0.14 96 1011.0
20260509172525 51 198 0.0 1.0 0.02 0.14 0.14 97 1011.2
20260509171541 50 166 0.0 1.0 0.02 0.13 0.13 97 1011.3
20260509170516 50 139 0.0 1.0 0.03 0.13 0.13 97 1011.4
20260509165533 50 166 0.0 1.0 0.04 0.13 0.13 97 1011.6
20260509164528 49 0.0 0.0 0.05 0.13 0.13 97 1011.6
20260509163523 49 0.0 0.0 0.06 0.12 0.12 97 1011.9
20260509162520 49 0.0 0.0 0.07 0.12 0.12 97 1011.9
20260509161516 48 0.0 0.0 0.08 0.11 0.11 97 1012.0
20260509160532 48 188 0.0 1.0 0.08 0.10 0.10 96 1012.2
20260509155547 47 45 1.0 2.0 0.08 0.09 0.09 95 1012.3
20260509154523 47 103 0.0 2.0 0.07 0.08 0.08 93 1012.5
20260509153520 47 146 0.0 1.0 0.05 0.06 0.06 91 1012.6
20260509152516 47 56 1.0 2.0 0.05 0.05 0.05 90 1012.7
20260509151532 47 0.0 0.0 0.03 0.03 0.03 87 1012.8
20260509150527 47 68 1.0 2.0 0.02 0.02 0.02 88 1012.9
20260509145524 47 53 2.0 3.0 0.01 0.01 0.01 88 1012.9
20260509144519 47 21 2.0 4.0 0.01 0.01 0.01 87 1012.7
20260509143535 47 58 3.0 4.0 0.01 0.01 0.01 85 1012.9
20260509142531 47 0.0 0.0 0.00 0.00 0.00 80 1012.9
20260509141526 48 0.0 0.0 0.00 0.00 0.00 80 1012.8
20260509140523 47 259 1.0 2.0 0.00 0.00 0.00 75 1012.7
20260509135538 47 203 0.0 1.0 0.00 0.00 0.00 79 1012.6
20260509134535 47 198 1.0 2.0 0.00 0.00 0.00 76 1012.7
20260509133531 47 192 1.0 2.0 0.00 0.00 0.00 74 1012.6
20260509132526 47 236 1.0 2.0 0.00 0.00 0.00 71 1012.6
20260509131523 47 53 0.0 1.0 0.00 0.00 0.00 72 1012.6
20260509130538 46 60 2.0 3.0 0.00 0.00 0.00 73 1012.6
20260509125534 45 75 1.0 2.0 0.00 0.00 0.00 73 1012.7
20260509124529 45 49 1.0 2.0 0.00 0.00 0.00 78 1012.7
20260509123527 44 97 1.0 2.0 0.00 0.00 0.00 80 1012.9
20260509122521 44 158 0.0 1.0 0.00 0.00 0.00 82 1013.0
20260509121517 43 59 1.0 2.0 0.00 0.00 0.00 83 1013.1
20260509120533 42 0.0 0.0 0.00 0.00 0.00 85 1013.2
20260509115609 41 0.0 0.0 0.00 0.00 0.00 92 1013.3
20260509114525 40 247 0.0 1.0 0.00 0.00 0.00 96 1013.4
20260509113521 39 51 1.0 2.0 0.00 0.00 0.00 98 1013.2
20260509112518 38 78 0.0 1.0 0.00 0.00 0.00 99 1013.3
20260509111554 37 0.0 0.0 0.00 0.00 0.00 99 1013.4
20260509110530 36 0.0 0.0 0.00 0.00 0.00 99 1013.5
20260509105546 35 0.0 0.0 0.00 0.00 0.00 99 1013.5
20260509104521 34 0.0 0.0 0.00 0.00 0.00 99 1013.6
20260509103517 34 0.0 0.0 0.00 0.00 0.00 99 1013.4
20260509102533 33 0.0 0.0 0.00 0.00 0.00 99 1013.4
20260509101529 33 0.0 0.0 0.00 0.00 0.00 99 1013.2
20260509100525 32 0.0 0.0 0.00 0.00 0.00 99 1013.1
20260509095520 32 0.0 0.0 0.00 0.00 0.00 99 1013.3
20260509094516 32 180 1.0 1.0 0.00 0.00 0.00 99 1013.1
20260509093532 31 199 2.0 2.0 0.00 0.00 0.00 99 1013.2
20260509092528 31 209 0.0 2.0 0.00 0.00 0.00 99 1013.3
20260509091524 31 0.0 0.0 0.00 0.00 0.00 99 1013.3
20260509090520 31 0.0 0.0 0.00 0.00 0.00 99 1013.1
20260509085516 31 0.0 0.0 0.00 0.00 0.00 99 1013.1
20260509084532 31 197 2.0 2.0 0.00 0.00 0.00 99 1013.1
20260509083528 30 191 2.0 3.0 0.00 0.00 0.00 99 1013.0
20260509082524 30 0.0 0.0 0.00 0.00 0.00 99 1012.9
20260509081520 30 0.0 0.0 0.00 0.00 0.00 99 1012.9
20260509080517 30 0.0 0.0 0.00 0.00 0.00 99 1013.0
20260509075531 30 0.0 0.0 0.00 0.00 0.00 99 1012.8
20260509074528 30 0.0 0.0 0.00 0.00 0.00 99 1012.9
20260509073523 30 0.0 0.0 0.00 0.00 0.00 99 1012.8
20260509072540 30 0.0 0.0 0.00 0.00 0.00 99 1013.0
20260509071516 30 0.0 0.0 0.00 0.00 0.00 99 1012.9
20260509070532 30 0.0 0.0 0.00 0.00 0.00 99 1012.8
20260509065527 30 0.0 0.0 0.00 0.00 0.00 99 1013.0
20260509064604 30 0.0 0.0 0.00 0.00 0.00 99 1013.3
20260509063520 30 0.0 0.0 0.00 0.00 0.00 99 1013.5
20260509062515 30 0.0 0.0 0.00 0.00 0.00 99 1013.5
20260509061532 31 0.0 0.0 0.00 0.00 0.00 99 1013.6
20260509060528 31 0.0 0.0 0.00 0.00 0.00 99 1013.6
20260509055524 31 0.0 0.0 0.00 0.00 0.00 99 1013.6
20260509054520 32 0.0 0.0 0.00 0.00 0.00 99 1013.6
20260509053556 32 0.0 0.0 0.00 0.00 0.00 99 1013.5
20260509052532 32 215 0.0 1.0 0.00 0.00 0.00 99 1013.7
20260509051528 32 0.0 0.0 0.00 0.00 0.00 99 1013.5
20260509050524 33 0.0 0.0 0.00 0.00 0.00 99 1013.5
20260509045523 33 203 2.0 3.0 0.00 0.00 0.00 99 1013.4
20260509044519 33 213 3.0 3.0 0.00 0.00 0.00 99 1013.4
20260509043515 33 0.0 0.0 0.00 0.00 0.00 99 1013.3
20260509042530 33 0.0 0.0 0.00 0.00 0.00 98 1013.3
20260509041547 34 0.0 0.0 0.00 0.00 0.00 98 1013.2
20260509040523 34 0.0 0.0 0.00 0.00 0.00 98 1013.1
20260509035519 34 0.0 0.0 0.00 0.00 0.00 97 1013.1
20260509034534 35 0.0 0.0 0.00 0.00 0.00 97 1013.0
20260509033550 35 0.0 0.0 0.00 0.00 0.00 96 1013.1
20260509032526 35 0.0 0.0 0.00 0.00 0.00 96 1013.1
20260509031523 36 214 0.0 2.0 0.00 0.00 0.00 95 1013.2
20260509030518 36 0.0 0.0 0.00 0.00 0.00 95 1013.0
20260509025534 36 0.0 0.0 0.00 0.00 0.00 94 1012.9
20260509024530 37 0.0 0.0 0.00 0.00 0.00 93 1012.8
20260509023547 37 0.0 0.0 0.00 0.00 0.00 92 1012.8
20260509022522 38 202 0.0 1.0 0.00 0.00 0.00 92 1012.6
20260509021539 38 224 1.0 2.0 0.00 0.00 0.00 91 1012.6
20260509020535 39 217 1.0 2.0 0.00 0.00 0.00 90 1012.5
20260509015531 39 220 1.0 2.0 0.00 0.00 0.00 88 1012.3
20260509014527 40 0.0 0.0 0.00 0.00 0.00 87 1012.3
20260509013523 40 0.0 0.0 0.00 0.00 0.00 86 1012.1
20260509012518 41 0.0 0.0 0.00 0.00 0.00 85 1012.0
20260509011614 42 0.0 0.0 0.00 0.00 0.00 82 1011.9
20260509010550 42 0.0 0.0 0.00 0.00 0.00 79 1011.7
20260509005526 43 0.0 0.0 0.00 0.00 0.00 79 1011.5
20260509004522 43 0.0 0.0 0.00 0.00 0.00 77 1011.3
20260509003518 44 0.0 0.0 0.00 0.00 0.00 76 1011.1
20260509002614 46 0.0 0.0 0.00 0.00 0.00 72 1011.3
20260509001530 48 256 2.0 2.0 0.00 0.00 0.00 67 1011.1
20260509000546 49 222 1.0 3.0 0.00 0.00 0.00 62 1011.1
20260508235521 50 234 1.0 3.0 0.00 0.00 0.00 61 1010.9
20260508234537 50 208 2.0 6.0 0.00 0.00 0.00 60 1011.0
20260508233533 51 204 2.0 4.0 0.00 0.00 0.00 61 1010.8
20260508232528 51 232 1.0 3.0 0.00 0.00 0.00 61 1010.7
20260508231544 51 224 3.0 6.0 0.00 0.00 0.00 60 1010.8
20260508230540 51 254 2.0 6.0 0.00 0.00 0.00 60 1010.7
20260508225536 51 245 4.0 7.0 0.00 0.00 0.00 60 1010.6
20260508224533 52 260 4.0 7.0 0.00 0.00 0.00 58 1010.4
20260508223527 52 238 3.0 11.0 0.00 0.00 0.00 60 1010.4
20260508222522 52 241 5.0 9.0 0.00 0.00 0.00 59 1010.2
20260508221519 52 244 5.0 10.0 0.00 0.00 0.00 60 1010.3
20260508220554 52 253 3.0 8.0 0.00 0.00 0.00 61 1010.4
20260508215530 52 244 4.0 8.0 0.00 0.00 0.00 61 1010.4
20260508214526 52 243 4.0 10.0 0.00 0.00 0.00 61 1010.3
20260508213542 51 252 6.0 11.0 0.00 0.00 0.00 60 1010.3
20260508212518 52 264 8.0 13.0 0.00 0.00 0.00 58 1010.2